Home   Weather   Ra'anana   Past weeks

Flag for Israel Past Weather in Ra'anana, Israel — Yesterday and Last 2 Weeks

Now
48 °F

Clear.


Feels Like: 48 °F
Forecast: 47 / 64 °F
Wind: 1 mph from North

Location: Ben Gurion International Airport

Current Time: Jan 22, 2017 at 3:56:55 am

Latest Report: Jan 22, 2017 at 3:20 am


Visibility: 10 mi

Pressure: 30.15 "Hg

Humidity: 87%

Dew Point: 45 °F

Location of Ra'ananaLocation

Past Weather in Ra'anana — Graph

°F

Ra'anana Temperature Yesterday

Maximum temperature yesterday: 64 °F (at 1:20 pm)
Minimum temperature yesterday: 48 °F (at 2:20 am)
Average temperature yesterday: 56 °F

High & Low Weather Summary for the Past Weeks

 TemperatureHumidityPressure
High70 °F (Jan 17, 2:20 pm)100% (Jan 14, 11:20 pm)30.27 "Hg (Jan 14, 11:20 pm)
Low41 °F (Jan 11, 5:50 am)26% (Jan 10, 3:20 pm)29.86 "Hg (Jan 14, 11:20 pm)
Average55 °F66%30.08 "Hg
* Reported Jan 7 2:20 am — Jan 22 2:50 am, Ra'anana, Weather by CustomWeather, © 2017

Note: Actual official high and low records may vary slightly from our data, if they occured in-between our weather recording intervals... More about our weather records

Advertising

Ra'anana Weather History for the Previous 24 Hours

Scroll right to see more
 ConditionsComfort  
Time TempWeatherWind HumidityBarometerVisibility
2:50 am
Sun, Jan 22
48 °FClear.3 mph87%30.15 "Hg10 mi
2:20 am48 °FPassing clouds.3 mph87%30.15 "HgN/A
1:50 am50 °FPassing clouds.5 mph82%30.15 "HgN/A
1:20 am50 °FPassing clouds.2 mph82%30.15 "HgN/A
12:50 am50 °FPassing clouds.2 mph82%30.15 "HgN/A
12:20 am52 °FPassing clouds.3 mph77%30.15 "HgN/A
11:50 pm
Sat, Jan 21
54 °FPassing clouds.5 mph72%30.15 "HgN/A
11:20 pm52 °FPassing clouds.5 mph77%30.15 "HgN/A
10:50 pm52 °FPassing clouds.3 mph77%30.15 "HgN/A
10:20 pm54 °FPassing clouds.3 mph77%30.15 "HgN/A
9:50 pm54 °FPassing clouds.3 mph77%30.15 "HgN/A
9:20 pm55 °FPassing clouds.5 mph72%30.15 "HgN/A
8:50 pm55 °FPassing clouds.2 mph72%30.15 "HgN/A
8:20 pm54 °FPassing clouds.3 mph77%30.15 "HgN/A
7:50 pm54 °FPassing clouds.2 mph72%30.12 "HgN/A
7:20 pm57 °FPassing clouds.2 mph67%30.12 "HgN/A
6:50 pm57 °FPassing clouds.1 mph67%30.12 "HgN/A
6:20 pm57 °FPassing clouds.3 mph67%30.12 "HgN/A
5:50 pm59 °FPassing clouds.5 mph59%30.09 "HgN/A
5:20 pm59 °FPassing clouds.6 mph59%30.09 "HgN/A
4:50 pm61 °FPassing clouds.8 mph59%30.09 "HgN/A
4:20 pm61 °FScattered clouds.10 mph55%30.09 "HgN/A
3:50 pm63 °FScattered clouds.8 mph56%30.09 "HgN/A
3:20 pm63 °FScattered clouds.12 mph56%30.09 "HgN/A
2:50 pm63 °FScattered clouds.13 mph56%30.09 "HgN/A
2:20 pm63 °FScattered clouds.12 mph56%30.09 "HgN/A
1:50 pm63 °FScattered clouds.13 mph52%30.07 "HgN/A
1:20 pm64 °FScattered clouds.14 mph46%30.07 "HgN/A
12:50 pm63 °FScattered clouds.14 mph56%30.09 "HgN/A
12:20 pm63 °FScattered clouds.13 mph56%30.09 "HgN/A
11:50 am63 °FScattered clouds.10 mph59%30.09 "HgN/A
11:20 am61 °FScattered clouds.8 mph68%30.12 "HgN/A
10:50 am61 °FScattered clouds.5 mph68%30.12 "HgN/A
10:20 am61 °FScattered clouds.6 mph68%30.12 "HgN/A
9:50 am59 °FScattered clouds.5 mph72%30.15 "HgN/A
9:20 am59 °FScattered clouds.5 mph72%30.12 "HgN/A
8:50 am55 °FScattered clouds.5 mph82%30.12 "HgN/A
8:20 am52 °FScattered clouds.3 mph88%30.12 "HgN/A
7:50 am52 °FBroken clouds.3 mph82%30.12 "HgN/A
7:20 am52 °FScattered clouds.5 mph82%30.12 "HgN/A
6:50 am50 °FScattered clouds.1 mph88%30.09 "HgN/A
6:20 am50 °FPassing clouds.2 mph88%30.09 "HgN/A
5:50 am52 °FLight rain. Passing clouds.2 mph82%30.09 "HgN/A
5:20 am50 °FLight rain. Passing clouds.3 mph88%30.09 "HgN/A
4:50 am48 °FPassing clouds.2 mph87%30.09 "HgN/A
4:20 am50 °FClear.5 mph82%30.09 "Hg10 mi
3:50 am48 °FClear.3 mph87%30.09 "Hg10 mi
3:20 am48 °FClear.2 mph87%30.09 "Hg10 mi
Weather by CustomWeather, © 2017

See weather overviewHow to use our weather pages